Voltar ao catálogo

NANCHANG HANGKONG 1

AtivoCiênciaSSO
NORAD 64050·PAYLOAD·🇨🇳 China
Este nome de satélite ainda não foi confirmado por fontes oficiais.

Lançado May 17, 2025 de Jiuquan Satellite Launch Center

Loading…

Próximas Passagens (próximas 24 horas)

TLE

AtualizadoSource: Space-Track

Época: Sep 14, 2026, 15:07 UTC

1 64050U 25103C   26257.63039750  .00002864  00000-0  13504-3 0  9997
2 64050  97.3670 327.2497 0002109 170.6494 189.4781 15.20269269 73657

Acompanhe NANCHANG HANGKONG 1 em tempo real com AllMySat

Download on the App Store